User: anonymous   Login
Location: Oulou
(10.7667°N, 12.5167°W)
Time: 03:34:59
(UTC+00:00)
Language:

CZ-3 Stage 3 - Orbit

View from above orbital plane
View from above orbital plane
View from above satellite
View from above satellite

Ground track
Ground track

The orbit data is extracted from the following two-line orbital elements,

1 20559U 90030B   19322.83288884 +.00004317 +00000-0 +32351-3 0  9991
2 20559 030.7697 193.6728 5436260 155.6731 244.6677 04.96381301107958
Epoch (UTC): 18 November 2019 19:59:21
Eccentricity: 0.5436260
inclination: 30.7697°
perigee height: 247 km
apogee height: 16029 km
right ascension of ascending node: 193.6728°
argument of perigee: 155.6731°
revolutions per day: 4.96381301
mean anomaly at epoch: 244.6677°
orbit number at epoch: 10795

The dashed part of the orbit path shows where the satellite is in the earth's shadow,  

DLR